sat.trackr.live / text

‹ back to catalog

STARLINK-36583

NORAD 67545 · 2026-014P

PAYLOAD ACTIVE UNKNOWN

§ Identity

Operator
Country
US
Launch date
2026-01-22
Launch site
AFWTR
Launch vehicle
Mass (kg)
RCS (m²)

Purposes: comms

External: N2YO · Heavens-Above · Gunter

§ Orbital elements

Epoch: 2026-09-19T03:31:21.492192Z

Period
93.91 min
Inclination
97.2833°
Eccentricity
0.0002715
Mean motion
15.33451097 rev/d
Perigee alt
463.7 km
Apogee alt
467.4 km
Semi-major
6,843.7 km
B*
3.3648e-4
RAAN
147.5752°
Arg perigee
75.1745°
Mean anomaly
284.9799°
Rev number
3,843

§ Raw data

STARLINK-365831 67545U 26014P   26262.14677653  .00010806  00000+0  33648-3 0  99982 67545  97.2833 147.5752 0002715  75.1745 284.9799 15.33451097 38430

JSON: /api/v1/satellites/67545 · /tle

For live sub-satellite position, see the globe view (requires WebGL).

§ Visibility from observer

Set your observer location to see the next 7 days of passes ≥ 10°. The values pass through the URL so the page stays shareable.

No JS? Fill the form by hand. The geolocation button needs JavaScript.